Location: Gleizolles
(44.4833°N, 6.7667°E)
Time: 22:25:51
(UTC+00:00)

Tiros 1 despin weight - Pass Details

Date: 02 July 2024
Orbit: 576 x 620 km, 48.2° (Epoch: 19 July)

Event Time Altitude Azimuth Distance (km) Brightness Sun altitude
Rises 14:39:56 0° 284° (WNW) 2,895 ? 47.1°
Reaches altitude 10° 14:42:55 10° 265° (W) 1,985 ? 46.6°
Maximum altitude 14:45:52 17° 224° (SW) 1,564 ? 46.0°
Drops below altitude 10° 14:48:48 10° 184° (S) 1,970 ? 45.5°
Sets 14:51:46 0° 164° (SSE) 2,865 ? 45.0°
